Year,Month,Day,Hour,Minute,Value (Times are PST for temperature in C)
2013,08,26,00,00,6.20
2013,08,26,00,04,6.00
2013,08,26,00,05,6.00
2013,08,26,00,06,6.00
2013,08,26,00,07,6.00
2013,08,26,00,08,6.00
2013,08,26,00,09,6.00
2013,08,26,00,10,6.00
2013,08,26,00,11,6.00
2013,08,26,00,12,6.00
2013,08,26,00,13,6.00
2013,08,26,00,14,6.00
2013,08,26,00,15,6.00
2013,08,26,00,19,6.00
2013,08,26,00,20,6.00
2013,08,26,00,21,6.00
2013,08,26,00,22,6.00
2013,08,26,00,23,6.00
2013,08,26,00,24,6.00
2013,08,26,00,25,6.00
2013,08,26,00,26,6.00
2013,08,26,00,27,6.00
2013,08,26,00,28,6.00
2013,08,26,00,29,6.00
2013,08,26,00,30,6.00
2013,08,26,00,34,5.80
2013,08,26,00,35,5.80
2013,08,26,00,36,5.80
2013,08,26,00,37,5.80
2013,08,26,00,38,5.80
2013,08,26,00,39,5.80
2013,08,26,00,40,5.80
2013,08,26,00,41,5.80
2013,08,26,00,42,5.80
2013,08,26,00,43,5.80
2013,08,26,00,44,5.80
2013,08,26,00,45,5.80
2013,08,26,00,49,5.70
2013,08,26,00,50,5.70
2013,08,26,00,51,5.70
2013,08,26,00,52,5.70
2013,08,26,00,53,5.70
2013,08,26,00,54,5.70
2013,08,26,00,55,5.70
2013,08,26,00,56,5.70
2013,08,26,00,57,5.70
2013,08,26,00,58,5.70
2013,08,26,00,59,5.70
2013,08,26,01,00,5.70
2013,08,26,01,04,5.80
2013,08,26,01,05,5.80
2013,08,26,01,06,5.80
2013,08,26,01,07,5.80
2013,08,26,01,08,5.80
2013,08,26,01,09,5.80
2013,08,26,01,10,5.80
2013,08,26,01,11,5.80
2013,08,26,01,12,5.80
2013,08,26,01,13,5.80
2013,08,26,01,14,5.80
2013,08,26,01,15,5.80
2013,08,26,01,19,5.80
2013,08,26,01,20,5.80
2013,08,26,01,21,5.80
2013,08,26,01,22,5.80
2013,08,26,01,23,5.80
2013,08,26,01,24,5.80
2013,08,26,01,25,5.80
2013,08,26,01,26,5.80
2013,08,26,01,27,5.80
2013,08,26,01,28,5.80
2013,08,26,01,29,5.80
2013,08,26,01,30,5.80
2013,08,26,01,34,6.40
2013,08,26,01,35,6.40
2013,08,26,01,36,6.40
2013,08,26,01,37,6.40
2013,08,26,01,38,6.40
2013,08,26,01,39,6.40
2013,08,26,01,40,6.40
2013,08,26,01,41,6.40
2013,08,26,01,42,6.40
2013,08,26,01,43,6.40
2013,08,26,01,44,6.40
2013,08,26,01,45,6.40
2013,08,26,01,49,6.30
2013,08,26,01,50,6.30
2013,08,26,01,51,6.30
2013,08,26,01,52,6.30
2013,08,26,01,53,6.30
2013,08,26,01,54,6.30
2013,08,26,01,55,6.30
2013,08,26,01,56,6.30
2013,08,26,01,57,6.30
2013,08,26,01,58,6.30
2013,08,26,01,59,6.30
2013,08,26,02,00,6.30
2013,08,26,02,04,6.20
2013,08,26,02,05,6.20
2013,08,26,02,06,6.20
2013,08,26,02,07,6.20
2013,08,26,02,08,6.20
2013,08,26,02,09,6.20
2013,08,26,02,10,6.20
2013,08,26,02,11,6.20
2013,08,26,02,12,6.20
2013,08,26,02,13,6.20
2013,08,26,02,14,6.20
2013,08,26,02,15,6.20
2013,08,26,02,19,6.30
2013,08,26,02,20,6.30
2013,08,26,02,21,6.30
2013,08,26,02,22,6.30
2013,08,26,02,23,6.30
2013,08,26,02,24,6.30
2013,08,26,02,25,6.30
2013,08,26,02,26,6.30
2013,08,26,02,27,6.30
2013,08,26,02,28,6.30
2013,08,26,02,29,6.30
2013,08,26,02,30,6.30
2013,08,26,02,34,6.30
2013,08,26,02,35,6.30
2013,08,26,02,36,6.30
2013,08,26,02,37,6.30
2013,08,26,02,38,6.30
2013,08,26,02,39,6.30
2013,08,26,02,40,6.30
2013,08,26,02,41,6.30
2013,08,26,02,42,6.30
2013,08,26,02,43,6.30
2013,08,26,02,44,6.30
2013,08,26,02,45,6.30
2013,08,26,02,49,6.30
2013,08,26,02,50,6.30
2013,08,26,02,51,6.30
2013,08,26,02,52,6.30
2013,08,26,02,53,6.30
2013,08,26,02,54,6.30
2013,08,26,02,55,6.30
2013,08,26,02,56,6.30
2013,08,26,02,57,6.30
2013,08,26,02,58,6.30
2013,08,26,02,59,6.30
2013,08,26,03,00,6.30
2013,08,26,03,04,6.40
2013,08,26,03,05,6.40
2013,08,26,03,06,6.40
2013,08,26,03,07,6.40
2013,08,26,03,08,6.40
2013,08,26,03,09,6.40
2013,08,26,03,10,6.40
2013,08,26,03,11,6.40
2013,08,26,03,12,6.40
2013,08,26,03,13,6.40
2013,08,26,03,14,6.40
2013,08,26,03,15,6.40
2013,08,26,03,19,6.20
2013,08,26,03,20,6.20
2013,08,26,03,21,6.20
2013,08,26,03,22,6.20
2013,08,26,03,23,6.20
2013,08,26,03,24,6.20
2013,08,26,03,25,6.20
2013,08,26,03,26,6.20
2013,08,26,03,27,6.20
2013,08,26,03,28,6.20
2013,08,26,03,29,6.20
2013,08,26,03,30,6.20
2013,08,26,03,34,6.10
2013,08,26,03,35,6.10
2013,08,26,03,36,6.10
2013,08,26,03,37,6.10
2013,08,26,03,38,6.10
2013,08,26,03,39,6.10
2013,08,26,03,40,6.10
2013,08,26,03,41,6.10
2013,08,26,03,42,6.10
2013,08,26,03,43,6.10
2013,08,26,03,44,6.10
2013,08,26,03,45,6.10
2013,08,26,03,49,5.90
2013,08,26,03,50,5.90
2013,08,26,03,51,5.90
2013,08,26,03,52,5.90
2013,08,26,03,53,5.90
2013,08,26,03,54,5.90
2013,08,26,03,55,5.90
2013,08,26,03,56,5.90
2013,08,26,03,57,5.90
2013,08,26,03,58,5.90
2013,08,26,03,59,5.90
2013,08,26,04,00,5.90
2013,08,26,04,04,5.70
2013,08,26,04,05,5.70
2013,08,26,04,06,5.70
2013,08,26,04,07,5.70
2013,08,26,04,08,5.70
2013,08,26,04,09,5.70
2013,08,26,04,10,5.70
2013,08,26,04,11,5.70
2013,08,26,04,12,5.70
2013,08,26,04,13,5.70
2013,08,26,04,14,5.70
2013,08,26,04,15,5.70
2013,08,26,04,19,5.70
2013,08,26,04,20,5.70
2013,08,26,04,21,5.70
2013,08,26,04,22,5.70
2013,08,26,04,23,5.70
2013,08,26,04,24,5.70
2013,08,26,04,25,5.70
2013,08,26,04,26,5.70
2013,08,26,04,27,5.70
2013,08,26,04,28,5.70
2013,08,26,04,29,5.70
2013,08,26,04,30,5.70
2013,08,26,04,34,5.70
2013,08,26,04,35,5.70
2013,08,26,04,36,5.70
2013,08,26,04,37,5.70
2013,08,26,04,38,5.70
2013,08,26,04,39,5.70
2013,08,26,04,40,5.70
2013,08,26,04,41,5.70
2013,08,26,04,42,5.70
2013,08,26,04,43,5.70
2013,08,26,04,44,5.70
2013,08,26,04,45,5.70
2013,08,26,04,49,5.50
2013,08,26,04,50,5.50
2013,08,26,04,51,5.50
2013,08,26,04,52,5.50
2013,08,26,04,53,5.50
2013,08,26,04,54,5.50
2013,08,26,04,55,5.50
2013,08,26,04,56,5.50
2013,08,26,04,57,5.50
2013,08,26,04,58,5.50
2013,08,26,04,59,5.50
2013,08,26,05,00,5.50
2013,08,26,05,04,5.20
2013,08,26,05,05,5.20
2013,08,26,05,06,5.20
2013,08,26,05,07,5.20
2013,08,26,05,08,5.20
2013,08,26,05,09,5.20
2013,08,26,05,10,5.20
2013,08,26,05,11,5.20
2013,08,26,05,12,5.20
2013,08,26,05,13,5.20
2013,08,26,05,14,5.20
2013,08,26,05,15,5.20
2013,08,26,05,19,5.00
2013,08,26,05,20,5.00
2013,08,26,05,21,5.00
2013,08,26,05,22,5.00
2013,08,26,05,23,5.00
2013,08,26,05,24,5.00
2013,08,26,05,25,5.00
2013,08,26,05,26,5.00
2013,08,26,05,27,5.00
2013,08,26,05,28,5.00
2013,08,26,05,29,5.00
2013,08,26,05,30,5.00
2013,08,26,05,34,5.00
2013,08,26,05,35,5.00
2013,08,26,05,36,5.00
2013,08,26,05,37,5.00
2013,08,26,05,38,5.00
2013,08,26,05,39,5.00
2013,08,26,05,40,5.00
2013,08,26,05,41,5.00
2013,08,26,05,42,5.00
2013,08,26,05,43,5.00
2013,08,26,05,44,5.00
2013,08,26,05,45,5.00
2013,08,26,05,49,4.90
2013,08,26,05,50,4.90
2013,08,26,05,51,4.90
2013,08,26,05,52,4.90
2013,08,26,05,53,4.90
2013,08,26,05,54,4.90
2013,08,26,05,55,4.90
2013,08,26,05,56,4.90
2013,08,26,05,57,4.90
2013,08,26,05,58,4.90
2013,08,26,05,59,4.90
2013,08,26,06,00,4.90
2013,08,26,06,04,4.70
2013,08,26,06,05,4.70
2013,08,26,06,06,4.70
2013,08,26,06,07,4.70
2013,08,26,06,08,4.70
2013,08,26,06,09,4.70
2013,08,26,06,10,4.70
2013,08,26,06,11,4.70
2013,08,26,06,12,4.70
2013,08,26,06,13,4.70
2013,08,26,06,14,4.70
2013,08,26,06,15,4.70
2013,08,26,06,19,4.80
2013,08,26,06,20,4.80
2013,08,26,06,21,4.80
2013,08,26,06,22,4.80
2013,08,26,06,23,4.80
2013,08,26,06,24,4.80
2013,08,26,06,25,4.80
2013,08,26,06,26,4.80
2013,08,26,06,27,4.80
2013,08,26,06,28,4.80
2013,08,26,06,29,4.80
2013,08,26,06,30,4.80
2013,08,26,06,34,4.90
2013,08,26,06,35,4.90
2013,08,26,06,36,4.90
2013,08,26,06,37,4.90
2013,08,26,06,38,4.90
2013,08,26,06,39,4.90
2013,08,26,06,40,4.90
2013,08,26,06,41,4.90
2013,08,26,06,42,4.90
2013,08,26,06,43,4.90
2013,08,26,06,44,4.90
2013,08,26,06,45,4.90
2013,08,26,06,49,4.90
2013,08,26,06,50,4.90
2013,08,26,06,51,4.90
2013,08,26,06,52,4.90
2013,08,26,06,53,4.90
2013,08,26,06,54,4.90
2013,08,26,06,55,4.90
2013,08,26,06,56,4.90
2013,08,26,06,57,4.90
2013,08,26,06,58,4.90
2013,08,26,06,59,4.90
2013,08,26,07,00,4.90
2013,08,26,07,04,5.10
2013,08,26,07,05,5.10
2013,08,26,07,06,5.10
2013,08,26,07,07,5.10
2013,08,26,07,08,5.10
2013,08,26,07,09,5.10
2013,08,26,07,10,5.10
2013,08,26,07,11,5.10
2013,08,26,07,12,5.10
2013,08,26,07,13,5.10
2013,08,26,07,14,5.10
2013,08,26,07,15,5.10
2013,08,26,07,19,5.40
2013,08,26,07,20,5.40
2013,08,26,07,21,5.40
2013,08,26,07,22,5.40
2013,08,26,07,23,5.40
2013,08,26,07,24,5.40
2013,08,26,07,25,5.40
2013,08,26,07,26,5.40
2013,08,26,07,38,5.40
2013,08,26,07,39,5.40
2013,08,26,07,40,5.40
2013,08,26,07,41,5.40
2013,08,26,07,42,5.40
2013,08,26,07,43,5.40
2013,08,26,07,44,5.40
2013,08,26,07,45,5.40
2013,08,26,07,49,5.80
2013,08,26,07,50,5.80
2013,08,26,07,51,5.80
2013,08,26,07,52,5.80
2013,08,26,07,53,5.80
2013,08,26,07,54,5.80
2013,08,26,07,55,5.80
2013,08,26,07,56,5.80
2013,08,26,07,57,5.80
2013,08,26,07,58,5.80
2013,08,26,07,59,5.80
2013,08,26,08,00,5.80
2013,08,26,08,04,6.10
2013,08,26,08,05,6.10
2013,08,26,08,06,6.10
2013,08,26,08,07,6.10
2013,08,26,08,08,6.10
2013,08,26,08,09,6.10
2013,08,26,08,10,6.10
2013,08,26,08,11,6.10
2013,08,26,08,12,6.10
2013,08,26,08,13,6.10
2013,08,26,08,14,6.10
2013,08,26,08,15,6.10
2013,08,26,08,19,6.30
2013,08,26,08,20,6.30
2013,08,26,08,21,6.30
2013,08,26,08,22,6.30
2013,08,26,08,23,6.30
2013,08,26,08,24,6.30
2013,08,26,08,25,6.30
2013,08,26,08,26,6.30
2013,08,26,08,27,6.30
2013,08,26,08,28,6.30
2013,08,26,08,29,6.30
2013,08,26,08,30,6.30
2013,08,26,08,34,6.30
2013,08,26,08,35,6.30
2013,08,26,08,36,6.30
2013,08,26,08,37,6.30
2013,08,26,08,38,6.30
2013,08,26,08,39,6.30
2013,08,26,08,40,6.30
2013,08,26,08,41,6.30
2013,08,26,08,42,6.30
2013,08,26,08,43,6.30
2013,08,26,08,44,6.30
2013,08,26,08,45,6.30
2013,08,26,08,49,6.40
2013,08,26,08,50,6.40
2013,08,26,08,51,6.40
2013,08,26,08,52,6.40
2013,08,26,08,53,6.40
2013,08,26,08,54,6.40
2013,08,26,08,55,6.40
2013,08,26,08,56,6.40
2013,08,26,08,57,6.40
2013,08,26,08,58,6.40
2013,08,26,08,59,6.40
2013,08,26,09,00,6.40
2013,08,26,09,04,7.30
2013,08,26,09,05,7.30
2013,08,26,09,06,7.30
2013,08,26,09,07,7.30
2013,08,26,09,08,7.30
2013,08,26,09,09,7.30
2013,08,26,09,10,7.30
2013,08,26,09,11,7.30
2013,08,26,09,12,7.30
2013,08,26,09,13,7.30
2013,08,26,09,14,7.30
2013,08,26,09,15,7.30
2013,08,26,09,19,7.60
2013,08,26,09,20,7.60
2013,08,26,09,21,7.60
2013,08,26,09,22,7.60
2013,08,26,09,23,7.60
2013,08,26,09,24,7.60
2013,08,26,09,25,7.60
2013,08,26,09,26,7.60
2013,08,26,09,27,7.60
2013,08,26,09,28,7.60
2013,08,26,09,29,7.60
2013,08,26,09,30,7.60
2013,08,26,09,34,7.70
2013,08,26,09,35,7.70
2013,08,26,09,36,7.70
2013,08,26,09,37,7.70
2013,08,26,09,38,7.70
2013,08,26,09,39,7.70
2013,08,26,09,40,7.70
2013,08,26,09,41,7.70
2013,08,26,09,42,7.70
2013,08,26,09,43,7.70
2013,08,26,09,44,7.70
2013,08,26,09,45,7.70
2013,08,26,09,49,7.60
2013,08,26,09,50,7.60
2013,08,26,09,51,7.60
2013,08,26,09,52,7.60
2013,08,26,09,53,7.60
2013,08,26,09,54,7.60
2013,08,26,09,55,7.60
2013,08,26,09,56,7.60
2013,08,26,09,57,7.60
2013,08,26,09,58,7.60
2013,08,26,09,59,7.60
2013,08,26,10,00,7.60
2013,08,26,10,04,8.10
2013,08,26,10,05,8.10
2013,08,26,10,06,8.10
2013,08,26,10,07,8.10
2013,08,26,10,08,8.10
2013,08,26,10,09,8.10
2013,08,26,10,10,8.10
2013,08,26,10,11,8.10
2013,08,26,10,12,8.10
2013,08,26,10,13,8.10
2013,08,26,10,14,8.10
2013,08,26,10,15,8.10
2013,08,26,10,19,8.80
2013,08,26,10,20,8.80
2013,08,26,10,21,8.80
2013,08,26,10,22,8.80
2013,08,26,10,23,8.80
2013,08,26,10,24,8.80
2013,08,26,10,25,8.80
2013,08,26,10,26,8.80
2013,08,26,10,27,8.80
2013,08,26,10,28,8.80
2013,08,26,10,29,8.80
2013,08,26,10,30,8.80
2013,08,26,10,34,9.60
2013,08,26,10,35,9.60
2013,08,26,10,36,9.60
2013,08,26,10,37,9.60
2013,08,26,10,38,9.60
2013,08,26,10,39,9.60
2013,08,26,10,40,9.60
2013,08,26,10,41,9.60
2013,08,26,10,42,9.60
2013,08,26,10,43,9.60
2013,08,26,10,44,9.60
2013,08,26,10,45,9.60
2013,08,26,10,49,10.10
2013,08,26,10,50,10.10
2013,08,26,10,51,10.10
2013,08,26,10,52,10.10
2013,08,26,10,53,10.10
2013,08,26,10,54,10.10
2013,08,26,10,55,10.10
2013,08,26,10,56,10.10
2013,08,26,10,57,10.10
2013,08,26,10,58,10.10
2013,08,26,10,59,10.10
2013,08,26,11,00,10.10
2013,08,26,11,04,9.50
2013,08,26,11,05,9.50
2013,08,26,11,06,9.50
2013,08,26,11,07,9.50
2013,08,26,11,08,9.50
2013,08,26,11,09,9.50
2013,08,26,11,10,9.50
2013,08,26,11,11,9.50
2013,08,26,11,12,9.50
2013,08,26,11,13,9.50
2013,08,26,11,14,9.50
2013,08,26,11,15,9.50
2013,08,26,11,19,10.20
2013,08,26,11,20,10.20
2013,08,26,11,21,10.20
2013,08,26,11,22,10.20
2013,08,26,11,23,10.20
2013,08,26,11,24,10.20
2013,08,26,11,25,10.20
2013,08,26,11,26,10.20
2013,08,26,11,27,10.20
2013,08,26,11,28,10.20
2013,08,26,11,29,10.20
2013,08,26,11,30,10.20
2013,08,26,11,34,10.60
2013,08,26,11,35,10.60
2013,08,26,11,36,10.60
2013,08,26,11,37,10.60
2013,08,26,11,38,10.60
2013,08,26,11,39,10.60
2013,08,26,11,40,10.60
2013,08,26,11,41,10.60
2013,08,26,11,42,10.60
2013,08,26,11,43,10.60
2013,08,26,11,44,10.60
2013,08,26,11,45,10.60
2013,08,26,11,49,10.80
2013,08,26,11,50,10.80
2013,08,26,11,51,10.80
2013,08,26,11,52,10.80
2013,08,26,11,53,10.80
2013,08,26,11,54,10.80
2013,08,26,11,55,10.80
2013,08,26,11,56,10.80
2013,08,26,11,57,10.80
2013,08,26,11,58,10.80
2013,08,26,11,59,10.80
2013,08,26,12,00,10.80
2013,08,26,12,04,10.90
2013,08,26,12,05,10.90
2013,08,26,12,06,10.90
2013,08,26,12,07,10.90
2013,08,26,12,08,10.90
2013,08,26,12,09,10.90
2013,08,26,12,10,10.90
2013,08,26,12,11,10.90
2013,08,26,12,12,10.90
2013,08,26,12,13,10.90
2013,08,26,12,14,10.90
2013,08,26,12,15,10.90
2013,08,26,12,19,10.30
2013,08,26,12,20,10.30
2013,08,26,12,21,10.30
2013,08,26,12,22,10.30
2013,08,26,12,23,10.30
2013,08,26,12,24,10.30
2013,08,26,12,25,10.30
2013,08,26,12,26,10.30
2013,08,26,12,27,10.30
2013,08,26,12,28,10.30
2013,08,26,12,29,10.30
2013,08,26,12,30,10.30
2013,08,26,12,34,10.00
2013,08,26,12,35,10.00
2013,08,26,12,36,10.00
2013,08,26,12,37,10.00
2013,08,26,12,38,10.00
2013,08,26,12,39,10.00
2013,08,26,12,40,10.00
2013,08,26,12,41,10.00
2013,08,26,12,42,10.00
2013,08,26,12,43,10.00
2013,08,26,12,44,10.00
2013,08,26,12,45,10.00
2013,08,26,12,49,10.40
2013,08,26,12,50,10.40
2013,08,26,12,51,10.40
2013,08,26,12,52,10.40
2013,08,26,12,53,10.40
2013,08,26,12,54,10.40
2013,08,26,12,55,10.40
2013,08,26,12,56,10.40
2013,08,26,12,57,10.40
2013,08,26,12,58,10.40
2013,08,26,12,59,10.40
2013,08,26,13,00,10.40
2013,08,26,13,04,10.70
2013,08,26,13,05,10.70
2013,08,26,13,06,10.70
2013,08,26,13,07,10.70
2013,08,26,13,08,10.70
2013,08,26,13,09,10.70
2013,08,26,13,10,10.70
2013,08,26,13,11,10.70
2013,08,26,13,12,10.70
2013,08,26,13,13,10.70
2013,08,26,13,14,10.70
2013,08,26,13,15,10.70
2013,08,26,13,19,9.80
2013,08,26,13,20,9.80
2013,08,26,13,21,9.80
2013,08,26,13,22,9.80
2013,08,26,13,23,9.80
2013,08,26,13,24,9.80
2013,08,26,13,25,9.80
2013,08,26,13,26,9.80
2013,08,26,13,27,9.80
2013,08,26,13,28,9.80
2013,08,26,13,29,9.80
2013,08,26,13,30,9.80
2013,08,26,13,34,8.80
2013,08,26,13,35,8.80
2013,08,26,13,36,8.80
2013,08,26,13,37,8.80
2013,08,26,13,38,8.80
2013,08,26,13,39,8.80
2013,08,26,13,40,8.80
2013,08,26,13,41,8.80
2013,08,26,13,42,8.80
2013,08,26,13,43,8.80
2013,08,26,13,44,8.80
2013,08,26,13,45,8.80
2013,08,26,13,49,9.10
2013,08,26,13,50,9.10
2013,08,26,13,51,9.10
2013,08,26,13,52,9.10
2013,08,26,13,53,9.10
2013,08,26,13,54,9.10
2013,08,26,13,55,9.10
2013,08,26,13,56,9.10
2013,08,26,13,57,9.10
2013,08,26,13,58,9.10
2013,08,26,13,59,9.10
2013,08,26,14,00,9.10
2013,08,26,14,04,10.10
2013,08,26,14,05,10.10
2013,08,26,14,06,10.10
2013,08,26,14,07,10.10
2013,08,26,14,08,10.10
2013,08,26,14,09,10.10
2013,08,26,14,10,10.10
2013,08,26,14,11,10.10
2013,08,26,14,12,10.10
2013,08,26,14,13,10.10
2013,08,26,14,14,10.10
2013,08,26,14,15,10.10
2013,08,26,14,19,9.10
2013,08,26,14,20,9.10
2013,08,26,14,21,9.10
2013,08,26,14,22,9.10
2013,08,26,14,23,9.10
2013,08,26,14,24,9.10
2013,08,26,14,25,9.10
2013,08,26,14,26,9.10
2013,08,26,14,27,9.10
2013,08,26,14,28,9.10
2013,08,26,14,29,9.10
2013,08,26,14,30,9.10
2013,08,26,14,34,9.20
2013,08,26,14,35,9.20
2013,08,26,14,36,9.20
2013,08,26,14,37,9.20
2013,08,26,14,38,9.20
2013,08,26,14,39,9.20
2013,08,26,14,40,9.20
2013,08,26,14,41,9.20
2013,08,26,14,42,9.20
2013,08,26,14,43,9.20
2013,08,26,14,44,9.20
2013,08,26,14,45,9.20
2013,08,26,14,49,10.30
2013,08,26,14,50,10.30
2013,08,26,14,51,10.30
2013,08,26,14,52,10.30
2013,08,26,14,53,10.30
2013,08,26,14,54,10.30
2013,08,26,14,55,10.30
2013,08,26,14,56,10.30
2013,08,26,14,57,10.30
2013,08,26,14,58,10.30
2013,08,26,14,59,10.30
2013,08,26,15,00,10.30
2013,08,26,15,04,9.80
2013,08,26,15,05,9.80
2013,08,26,15,06,9.80
2013,08,26,15,07,9.80
2013,08,26,15,08,9.80
2013,08,26,15,09,9.80
2013,08,26,15,10,9.80
2013,08,26,15,11,9.80
2013,08,26,15,12,9.80
2013,08,26,15,13,9.80
2013,08,26,15,14,9.80
2013,08,26,15,15,9.80
2013,08,26,15,19,8.50
2013,08,26,15,20,8.50
2013,08,26,15,21,8.50
2013,08,26,15,22,8.50
2013,08,26,15,23,8.50
2013,08,26,15,24,8.50
2013,08,26,15,25,8.50
2013,08,26,15,26,8.50
2013,08,26,15,27,8.50
2013,08,26,15,28,8.50
2013,08,26,15,29,8.50
2013,08,26,15,30,8.50
2013,08,26,15,34,7.10
2013,08,26,15,35,7.10
2013,08,26,15,36,7.10
2013,08,26,15,37,7.10
2013,08,26,15,38,7.10
2013,08,26,15,39,7.10
2013,08,26,15,40,7.10
2013,08,26,15,41,7.10
2013,08,26,15,42,7.10
2013,08,26,15,43,7.10
2013,08,26,15,44,7.10
2013,08,26,15,45,7.10
2013,08,26,15,49,6.30
2013,08,26,15,50,6.30
2013,08,26,15,51,6.30
2013,08,26,15,52,6.30
2013,08,26,15,53,6.30
2013,08,26,15,54,6.30
2013,08,26,15,55,6.30
2013,08,26,15,56,6.30
2013,08,26,15,57,6.30
2013,08,26,15,58,6.30
2013,08,26,15,59,6.30
2013,08,26,16,00,6.30
2013,08,26,16,04,6.40
2013,08,26,16,05,6.40
2013,08,26,16,06,6.40
2013,08,26,16,07,6.40
2013,08,26,16,08,6.40
2013,08,26,16,09,6.40
2013,08,26,16,10,6.40
2013,08,26,16,11,6.40
2013,08,26,16,12,6.40
2013,08,26,16,13,6.40
2013,08,26,16,14,6.40
2013,08,26,16,15,6.40
2013,08,26,16,19,6.10
2013,08,26,16,20,6.10
2013,08,26,16,21,6.10
2013,08,26,16,22,6.10
2013,08,26,16,23,6.10
2013,08,26,16,24,6.10
2013,08,26,16,25,6.10
2013,08,26,16,26,6.10
2013,08,26,16,27,6.10
2013,08,26,16,28,6.10
2013,08,26,16,29,6.10
2013,08,26,16,30,6.10
2013,08,26,16,34,5.70
2013,08,26,16,35,5.70
2013,08,26,16,36,5.70
2013,08,26,16,37,5.70
2013,08,26,16,38,5.70
2013,08,26,16,39,5.70
2013,08,26,16,40,5.70
2013,08,26,16,41,5.70
2013,08,26,16,42,5.70
2013,08,26,16,43,5.70
2013,08,26,16,44,5.70
2013,08,26,16,45,5.70
2013,08,26,16,49,5.40
2013,08,26,16,50,5.40
2013,08,26,16,51,5.40
2013,08,26,16,52,5.40
2013,08,26,16,53,5.40
2013,08,26,16,54,5.40
2013,08,26,16,55,5.40
2013,08,26,16,56,5.40
2013,08,26,16,57,5.40
2013,08,26,16,58,5.40
2013,08,26,16,59,5.40
2013,08,26,17,00,5.40
2013,08,26,17,04,5.30
2013,08,26,17,05,5.30
2013,08,26,17,06,5.30
2013,08,26,17,07,5.30
2013,08,26,17,08,5.30
2013,08,26,17,09,5.30
2013,08,26,17,10,5.30
2013,08,26,17,11,5.30
2013,08,26,17,12,5.30
2013,08,26,17,13,5.30
2013,08,26,17,14,5.30
2013,08,26,17,15,5.30
2013,08,26,17,19,5.30
2013,08,26,17,20,5.30
2013,08,26,17,21,5.30
2013,08,26,17,22,5.30
2013,08,26,17,23,5.30
2013,08,26,17,24,5.30
2013,08,26,17,25,5.30
2013,08,26,17,26,5.30
2013,08,26,17,27,5.30
2013,08,26,17,28,5.30
2013,08,26,17,29,5.30
2013,08,26,17,30,5.30
2013,08,26,17,34,5.50
2013,08,26,17,35,5.50
2013,08,26,17,36,5.50
2013,08,26,17,37,5.50
2013,08,26,17,38,5.50
2013,08,26,17,39,5.50
2013,08,26,17,40,5.50
2013,08,26,17,41,5.50
2013,08,26,17,42,5.50
2013,08,26,17,43,5.50
2013,08,26,17,44,5.50
2013,08,26,17,45,5.50
2013,08,26,17,49,5.70
2013,08,26,17,50,5.70
2013,08,26,17,51,5.70
2013,08,26,17,52,5.70
2013,08,26,17,53,5.70
2013,08,26,17,54,5.70
2013,08,26,17,55,5.70
2013,08,26,17,56,5.70
2013,08,26,17,57,5.70
2013,08,26,17,58,5.70
2013,08,26,17,59,5.70
2013,08,26,18,00,5.70
2013,08,26,18,04,5.60
2013,08,26,18,05,5.60
2013,08,26,18,06,5.60
2013,08,26,18,07,5.60
2013,08,26,18,08,5.60
2013,08,26,18,09,5.60
2013,08,26,18,10,5.60
2013,08,26,18,11,5.60
2013,08,26,18,12,5.60
2013,08,26,18,13,5.60
2013,08,26,18,14,5.60
2013,08,26,18,15,5.60
2013,08,26,18,19,5.70
2013,08,26,18,20,5.70
2013,08,26,18,21,5.70
2013,08,26,18,22,5.70
2013,08,26,18,23,5.70
2013,08,26,18,24,5.70
2013,08,26,18,25,5.70
2013,08,26,18,26,5.70
2013,08,26,18,27,5.70
2013,08,26,18,28,5.70
2013,08,26,18,29,5.70
2013,08,26,18,30,5.70
2013,08,26,18,34,5.70
2013,08,26,18,35,5.70
2013,08,26,18,36,5.70
2013,08,26,18,37,5.70
2013,08,26,18,38,5.70
2013,08,26,18,39,5.70
2013,08,26,18,40,5.70
2013,08,26,18,41,5.70
2013,08,26,18,42,5.70
2013,08,26,18,43,5.70
2013,08,26,18,44,5.70
2013,08,26,18,45,5.70
2013,08,26,18,49,5.70
2013,08,26,18,50,5.70
2013,08,26,18,51,5.70
2013,08,26,18,52,5.70
2013,08,26,18,53,5.70
2013,08,26,18,54,5.70
2013,08,26,18,55,5.70
2013,08,26,18,56,5.70
2013,08,26,18,57,5.70
2013,08,26,18,58,5.70
2013,08,26,18,59,5.70
2013,08,26,19,00,5.70
2013,08,26,19,04,5.80
2013,08,26,19,05,5.80
2013,08,26,19,06,5.80
2013,08,26,19,07,5.80
2013,08,26,19,08,5.80
2013,08,26,19,09,5.80
2013,08,26,19,10,5.80
2013,08,26,19,11,5.80
2013,08,26,19,12,5.80
2013,08,26,19,13,5.80
2013,08,26,19,14,5.80
2013,08,26,19,15,5.80
2013,08,26,19,19,5.70
2013,08,26,19,20,5.70
2013,08,26,19,21,5.70
2013,08,26,19,22,5.70
2013,08,26,19,23,5.70
2013,08,26,19,24,5.70
2013,08,26,19,25,5.70
2013,08,26,19,26,5.70
2013,08,26,19,27,5.70
2013,08,26,19,28,5.70
2013,08,26,19,29,5.70
2013,08,26,19,30,5.70
2013,08,26,19,34,5.80
2013,08,26,19,35,5.80
2013,08,26,19,36,5.80
2013,08,26,19,37,5.80
2013,08,26,19,38,5.80
2013,08,26,19,39,5.80
2013,08,26,19,40,5.80
2013,08,26,19,41,5.80
2013,08,26,19,42,5.80
2013,08,26,19,43,5.80
2013,08,26,19,44,5.80
2013,08,26,19,45,5.80
2013,08,26,19,49,5.70
2013,08,26,19,50,5.70
2013,08,26,19,51,5.70
2013,08,26,19,52,5.70
2013,08,26,19,53,5.70
2013,08,26,19,54,5.70
2013,08,26,19,55,5.70
2013,08,26,19,56,5.70
2013,08,26,19,57,5.70
2013,08,26,19,58,5.70
2013,08,26,19,59,5.70
2013,08,26,20,00,5.70
2013,08,26,20,04,5.80
2013,08,26,20,05,5.80
2013,08,26,20,06,5.80
2013,08,26,20,07,5.80
2013,08,26,20,08,5.80
2013,08,26,20,09,5.80
2013,08,26,20,10,5.80
2013,08,26,20,11,5.80
2013,08,26,20,12,5.80
2013,08,26,20,13,5.80
2013,08,26,20,14,5.80
2013,08,26,20,15,5.80
2013,08,26,20,19,5.80
2013,08,26,20,20,5.80
2013,08,26,20,21,5.80
2013,08,26,20,22,5.80
2013,08,26,20,23,5.80
2013,08,26,20,24,5.80
2013,08,26,20,25,5.80
2013,08,26,20,26,5.80
2013,08,26,20,27,5.80
2013,08,26,20,28,5.80
2013,08,26,20,29,5.80
2013,08,26,20,30,5.80
2013,08,26,20,34,5.80
2013,08,26,20,35,5.80
2013,08,26,20,36,5.80
2013,08,26,20,37,5.80
2013,08,26,20,38,5.80
2013,08,26,20,39,5.80
2013,08,26,20,40,5.80
2013,08,26,20,41,5.80
2013,08,26,20,42,5.80
2013,08,26,20,43,5.80
2013,08,26,20,44,5.80
2013,08,26,20,45,5.80
2013,08,26,20,49,5.90
2013,08,26,20,50,5.90
2013,08,26,20,51,5.90
2013,08,26,20,52,5.90
2013,08,26,20,53,5.90
2013,08,26,20,54,5.90
2013,08,26,20,55,5.90
2013,08,26,20,56,5.90
2013,08,26,20,57,5.90
2013,08,26,20,58,5.90
2013,08,26,20,59,5.90
2013,08,26,21,00,5.90
2013,08,26,21,04,5.90
2013,08,26,21,05,5.90
2013,08,26,21,06,5.90
2013,08,26,21,07,5.90
2013,08,26,21,08,5.90
2013,08,26,21,09,5.90
2013,08,26,21,10,5.90
2013,08,26,21,11,5.90
2013,08,26,21,12,5.90
2013,08,26,21,13,5.90
2013,08,26,21,14,5.90
2013,08,26,21,15,5.90
2013,08,26,21,19,5.90
2013,08,26,21,20,5.90
2013,08,26,21,21,5.90
2013,08,26,21,22,5.90
2013,08,26,21,23,5.90
2013,08,26,21,24,5.90
2013,08,26,21,25,5.90
2013,08,26,21,26,5.90
2013,08,26,21,27,5.90
2013,08,26,21,28,5.90
2013,08,26,21,29,5.90
2013,08,26,21,30,5.90
2013,08,26,21,34,5.90
2013,08,26,21,35,5.90
2013,08,26,21,36,5.90
2013,08,26,21,37,5.90
2013,08,26,21,38,5.90
2013,08,26,21,39,5.90
2013,08,26,21,40,5.90
2013,08,26,21,41,5.90
2013,08,26,21,42,5.90
2013,08,26,21,43,5.90
2013,08,26,21,44,5.90
2013,08,26,21,45,5.90
2013,08,26,21,49,6.10
2013,08,26,21,50,6.10
2013,08,26,21,51,6.10
2013,08,26,21,52,6.10
2013,08,26,21,53,6.10
2013,08,26,21,54,6.10
2013,08,26,21,55,6.10
2013,08,26,21,56,6.10
2013,08,26,21,57,6.10
2013,08,26,21,58,6.10
2013,08,26,21,59,6.10
2013,08,26,22,00,6.10
2013,08,26,22,04,6.10
2013,08,26,22,05,6.10
2013,08,26,22,06,6.10
2013,08,26,22,07,6.10
2013,08,26,22,08,6.10
2013,08,26,22,09,6.10
2013,08,26,22,10,6.10
2013,08,26,22,11,6.10
2013,08,26,22,12,6.10
2013,08,26,22,13,6.10
2013,08,26,22,14,6.10
2013,08,26,22,15,6.10
2013,08,26,22,19,6.00
2013,08,26,22,20,6.00
2013,08,26,22,21,6.00
2013,08,26,22,22,6.00
2013,08,26,22,23,6.00
2013,08,26,22,24,6.00
2013,08,26,22,25,6.00
2013,08,26,22,26,6.00
2013,08,26,22,27,6.00
2013,08,26,22,28,6.00
2013,08,26,22,29,6.00
2013,08,26,22,30,6.00
2013,08,26,22,34,5.90
2013,08,26,22,35,5.90
2013,08,26,22,36,5.90
2013,08,26,22,37,5.90
2013,08,26,22,38,5.90
2013,08,26,22,39,5.90
2013,08,26,22,40,5.90
2013,08,26,22,41,5.90